Wetbulb
73.45 72.92 71.53 69.42 59.61 58.51 55.52 57.59 61.62 61.15 60.56 63.19 64.07 62.62 61.46 63.01 59.92 53.89 65.65 67.90 70.81 71.84 73.57 75.00 77.05 76.59 76.41 77.12 76.77 76.95 76.96 76.91 76.83 76.99 76.87 76.45 76.46 76.57 76.51 76.37 75.81 75.40 76.21 75.69 75.73 74.36 74.08 74.60 74.65
72.21 71.95 70.09 66.22 57.60 48.50 54.01 59.69 59.75 62.09 64.17 63.93 65.18 64.12 62.88 60.25 64.14 64.79 65.11 69.22 71.53 72.68 74.01 74.37 77.06 76.81 76.82 76.90 77.12 76.70 76.98 77.03 76.87 76.83 76.95 76.48 76.76 76.84 76.85 76.81 75.70 76.06 76.19 75.94 75.57 74.99 74.16 74.41 74.49
72.10 71.81 65.84 62.02 56.74 51.54 54.30 59.54 61.45 63.85 64.73 64.11 63.26 64.97 63.46 61.28 64.85 65.14 67.01 71.19 72.63 72.97 73.80 74.43 76.81 76.96 76.90 77.02 76.75 77.24 77.12 76.96 76.42 76.37 76.76 76.71 76.52 76.64 76.64 76.73 76.49 76.35 76.02 75.99 75.70 75.45 75.04 74.71 74.87
69.05 68.26 66.68 58.30 56.03 58.48 59.21 61.89 63.99 63.54 65.25 65.37 63.80 60.78 64.09 66.61 65.12 66.60 70.64 72.77 72.87 73.38 74.25 76.12 76.36 76.42 76.43 76.41 76.87 76.43 76.06 76.36 76.01 76.16 75.83 75.81 76.56 76.42 76.53 76.66 76.44 76.24 76.03 75.86 75.75 75.53 74.68 74.60 74.44
69.15 66.95 58.45 53.99 56.42 59.95 62.23 64.09 64.80 63.50 63.66 63.16 63.52 59.79 61.24 65.48 67.81 70.00 71.71 72.80 72.35 73.16 74.23 74.63 77.20 76.17 76.94 76.57 76.72 76.26 76.33 76.63 76.83 76.80 76.60 76.32 76.22 76.09 76.25 76.31 76.14 75.95 75.60 75.50 75.48 75.43 75.21 74.49 74.55
65.08 64.34 54.69 52.94 56.52 60.07 62.62 64.43 64.72 64.05 63.45 61.80 60.73 60.59 61.83 66.43 68.27 70.12 72.54 72.59 73.47 73.35 73.54 74.38 76.24 76.38 77.07 76.97 76.51 76.28 76.52 76.68 76.75 76.99 76.77 76.51 76.60 76.33 76.52 76.28 76.26 75.98 75.96 75.72 75.70 75.45 75.28 75.04 74.63
64.38 59.07 55.49 56.67 56.95 58.64 61.64 65.52 63.87 64.11 62.66 61.17 63.05 59.18 62.22 65.41 67.97 71.31 72.21 73.22 73.80 73.92 73.30 73.04 73.24 74.92 76.90 76.89 77.15 76.45 76.68 77.03 76.69 77.11 76.91 76.84 76.60 76.43 76.41 76.42 76.32 76.15 75.85 75.81 75.65 75.29 75.45 75.37 75.10
65.66 61.03 56.06 57.11 55.12 57.01 63.64 64.35 65.29 65.03 63.10 65.33 64.50 58.68 59.33 64.87 69.31 71.64 72.20 72.71 72.88 73.08 73.13 72.64 73.29 73.73 74.40 74.86 77.32 76.45 76.82 76.58 76.35 76.41 76.50 76.61 76.35 76.39 76.31 75.70 76.61 75.25 75.93 75.76 75.59 75.59 75.37 76.08 76.08
67.95 58.57 53.09 55.27 57.92 58.29 63.73 63.09 66.16 67.31 63.81 65.38 64.53 63.15 64.40 66.72 70.67 70.65 70.32 71.36 71.96 72.18 71.88 72.15 72.26 73.28 73.59 74.07 75.36 76.09 76.74 76.49 76.22 75.71 76.03 75.11 73.67 74.13 74.64 75.02 75.39 75.48 75.93 75.55 75.44 75.51 75.65 75.93 75.71
61.74 56.92 56.75 60.07 61.32 59.04 63.40 64.43 63.90 63.71 63.64 61.17 61.93 64.40 66.12 67.46 68.97 67.64 67.21 67.40 69.11 70.68 71.48 71.36 71.94 72.67 73.40 74.72 73.78 73.55 74.58 74.24 73.97 74.10 74.41 73.93 73.49 73.93 74.56 75.23 75.33 75.23 75.69 75.85 75.68 75.43 75.62 73.66 73.61
61.92 58.26 61.15 62.10 63.27 63.10 63.64 63.79 65.52 62.95 61.27 60.67 60.24 62.37 64.93 66.63 67.68 66.58 66.88 67.62 68.46 70.37 71.88 71.02 71.68 72.38 72.86 73.22 72.82 72.86 73.09 73.62 73.79 73.90 73.50 73.31 73.58 73.53 73.84 74.01 74.08 74.02 72.42 69.74 71.83 71.01 72.64 73.06 73.32
56.01 60.35 62.75 62.88 63.84 61.99 60.69 64.22 63.63 64.15 63.78 64.34 63.33 64.20 65.01 65.89 66.61 66.54 66.87 67.78 68.73 69.70 71.14 71.31 71.52 71.64 71.72 71.75 72.12 72.43 72.32 72.87 72.79 73.12 72.34 71.72 72.39 72.94 72.69 73.25 72.71 73.50 73.08 71.94 72.39 72.28 72.13 71.98 73.09
55.46 56.49 60.02 63.12 62.80 61.99 63.33 62.81 63.70 63.86 65.08 64.02 64.21 64.54 64.61 66.13 66.97 68.11 68.39 68.89 69.47 69.29 70.45 71.16 71.32 70.82 70.91 70.63 71.67 71.64 71.86 72.35 72.48 72.82 70.55 72.73 72.75 72.43 73.15 72.80 72.72 72.89 72.94 72.48 71.50 72.05 72.90 72.71 72.52
53.15 55.53 56.54 58.11 58.20 60.28 60.70 62.40 63.64 64.20 63.22 62.57 63.45 63.97 65.04 66.31 67.18 67.97 68.17 68.22 68.60 69.17 69.60 71.03 71.22 70.43 69.93 69.78 70.59 70.75 71.40 71.69 72.20 72.81 72.64 71.30 72.86 72.07 72.73 72.98 72.40 71.80 72.06 72.02 71.71 71.98 72.73 72.01 72.34
51.51 48.14 50.30 52.10 56.07 60.64 64.21 59.88 61.02 63.79 62.61 62.24 63.12 64.48 65.06 66.04 67.42 67.26 68.42 68.13 68.42 68.86 69.44 70.25 70.85 70.15 69.26 69.46 69.76 70.23 70.69 71.26 71.40 72.43 73.30 72.63 72.55 71.76 72.79 72.60 72.20 72.48 72.96 72.53 71.56 72.42 72.76 71.73 69.95
46.54 46.54 43.18 50.25 52.86 62.52 60.42 52.58 62.33 63.80 61.18 61.09 63.28 64.06 64.67 65.68 66.73 67.76 68.84 68.46 68.70 68.65 68.18 69.41 71.62 70.31 69.07 69.07 69.01 69.32 70.40 70.79 70.83 71.71 73.07 73.41 73.00 72.22 72.64 72.48 71.37 73.03 73.39 72.21 71.92 72.12 71.38 69.69 70.03
40.42 39.94 43.51 47.82 55.17 60.68 59.48 54.39 61.90 64.02 62.10 60.36 62.13 63.15 64.22 65.24 66.61 67.84 68.27 68.53 68.67 68.39 68.09 67.61 69.79 69.22 69.27 69.16 69.33 69.23 70.16 70.78 70.58 71.74 72.79 73.24 73.02 73.44 72.58 72.44 72.25 73.46 72.50 72.13 72.34 71.10 70.24 70.01 70.77
36.83 38.97 42.50 47.18 52.32 59.18 57.29 55.86 61.02 62.76 62.59 61.60 61.95 62.77 63.41 64.39 65.64 67.62 67.81 68.55 68.58 68.37 68.18 67.74 68.06 68.86 68.99 69.07 69.43 69.79 70.85 71.45 69.60 71.28 72.40 72.96 73.08 74.01 72.76 72.67 72.34 72.74 72.85 71.56 72.06 71.61 71.13 69.43 66.10
43.22 44.83 45.79 49.56 52.67 56.93 55.89 55.64 60.36 61.83 62.15 61.79 62.54 62.88 63.08 63.71 66.26 67.80 68.47 68.24 68.09 68.04 67.28 67.41 67.02 67.92 68.93 68.67 68.11 68.64 68.76 70.37 70.60 70.40 72.18 72.66 73.41 74.33 72.58 72.35 72.01 71.60 72.51 71.85 72.33 70.89 70.34 67.70 65.75
42.63 40.81 40.89 47.48 53.16 54.92 53.97 55.40 59.69 61.22 61.33 62.39 62.61 63.07 63.36 64.16 65.22 66.73 67.40 67.35 67.33 67.17 66.89 67.23 67.27 67.86 69.45 69.53 69.63 69.21 68.88 69.74 70.85 70.59 71.63 72.15 73.07 74.53 73.16 72.49 71.96 71.29 72.09 71.50 72.08 71.43 69.91 69.20 65.53
40.29 40.22 40.84 45.09 52.95 56.89 55.12 53.23 55.34 60.92 62.30 62.82 63.45 64.26 64.37 64.35 64.45 65.57 66.55 66.96 67.31 66.39 66.54 66.80 67.52 67.81 69.55 69.76 69.40 69.45 69.13 69.15 69.48 69.32 69.61 71.44 72.45 74.04 74.12 73.33 72.67 71.58 72.22 71.73 72.00 71.56 70.51 68.46 66.77
35.04 44.39 45.33 46.43 45.77 46.15 54.62 44.18 51.90 55.98 59.89 61.63 62.27 62.81 63.62 64.62 65.62 65.86 66.51 66.77 67.36 67.03 67.60 67.46 67.69 67.78 69.41 69.63 69.28 69.17 68.29 67.13 67.71 68.98 69.45 70.64 72.51 73.12 74.29 74.05 73.24 72.81 72.64 71.87 71.92 72.01 70.83 69.14 67.28
40.89 47.39 45.64 46.33 44.82 45.92 47.08 43.83 46.73 54.75 55.12 58.96 61.80 63.25 64.06 65.03 65.67 65.73 66.31 67.36 68.12 68.35 68.12 68.34 67.84 67.96 68.83 69.60 69.43 68.92 68.72 67.79 67.97 68.46 69.16 69.18 72.16 73.12 73.98 74.36 74.02 73.28 72.80 73.06 72.40 72.30 71.33 69.56 66.83
50.52 46.50 45.01 43.70 44.49 40.56 44.50 46.91 45.45 50.13 54.75 57.43 60.36 62.90 64.67 65.33 65.95 66.37 67.38 68.09 67.91 68.88 68.21 68.99 67.98 67.76 68.41 69.12 69.41 68.79 68.64 67.38 67.74 67.54 67.58 68.01 68.85 72.17 73.26 74.39 73.94 73.89 73.16 73.07 72.81 72.71 71.97 71.21 69.93
47.89 41.25 34.63 33.10 36.70 37.93 43.20 41.92 47.93 51.14 56.95 58.73 59.63 60.61 63.06 65.94 65.98 66.15 66.07 66.53 67.44 67.65 67.87 68.43 68.37 67.78 68.35 68.73 69.24 68.96 68.61 68.25 68.22 68.11 67.56 67.22 67.77 69.34 71.82 73.50 73.83 73.41 73.36 73.24 73.33 72.70 72.43 71.79 71.38
43.65 42.43 35.39 29.81 30.06 37.88 40.06 38.89 45.67 52.84 55.07 59.59 60.92 61.90 62.76 64.66 66.50 66.55 66.90 66.80 67.17 67.65 67.98 67.92 67.86 67.93 68.53 68.71 69.22 69.67 69.37 68.64 69.19 68.92 68.61 68.61 68.04 69.31 71.30 72.45 74.15 74.02 73.93 73.53 73.50 72.55 72.03 72.38 71.97
41.86 41.79 44.93 36.71 34.28 33.43 37.72 41.80 47.53 51.09 51.95 57.09 58.72 60.57 61.65 63.48 65.50 66.35 67.44 67.86 67.76 67.91 68.00 67.88 67.67 68.03 68.76 69.15 69.46 69.67 69.86 69.22 68.96 69.20 69.33 69.07 69.08 69.88 71.00 72.23 73.10 74.17 73.85 73.81 73.50 72.66 72.51 72.70 72.33
42.67 45.02 38.99 35.04 33.56 31.38 35.16 37.59 43.04 46.54 50.52 51.61 57.14 59.23 61.16 63.20 64.34 65.67 66.85 67.60 68.53 68.70 68.85 68.83 68.45 67.76 68.80 69.49 69.86 69.93 70.00 70.07 69.86 69.28 68.95 69.11 68.90 69.89 71.43 72.03 72.49 73.50 73.95 74.05 73.67 73.34 73.37 72.66 72.59
39.34 39.00 39.01 40.48 38.94 36.76 32.10 39.16 43.93 47.50 50.31 50.72 54.99 59.24 61.22 62.04 63.39 64.75 66.23 67.27 68.32 69.09 69.11 68.96 68.45 68.30 68.65 69.39 69.74 70.06 70.21 70.35 70.47 69.52 69.32 69.18 69.38 69.27 69.98 71.82 72.47 72.78 73.64 74.01 73.54 73.74 73.70 72.78 72.93
41.22 38.82 36.71 34.98 34.24 34.71 37.43 40.96 49.41 48.80 49.46 50.56 52.21 59.66 61.56 62.21 62.79 64.05 65.60 66.90 67.31 68.02 68.71 68.93 68.62 68.51 68.95 69.64 69.88 69.91 70.45 70.74 70.05 69.99 69.95 69.96 69.00 69.29 69.97 70.72 71.99 72.58 73.41 74.08 73.49 73.25 73.78 73.16 72.96
MSLP
1010.60 1010.84 1011.30 1011.48 1011.92 1011.37 1010.55 1009.98 1009.55 1008.95 1008.81 1008.85 1009.44 1009.82 1010.75 1011.64 1012.41 1014.01 1013.98 1014.02 1014.08 1014.73 1014.98 1015.11 1015.30 1015.58 1015.82 1015.93 1016.07 1016.20 1016.35 1016.49 1016.66 1016.68 1016.86 1017.06 1017.00 1017.28 1017.38 1017.56 1017.75 1017.86 1017.91 1018.04 1018.10 1018.25 1018.31 1018.35 1018.45
1010.75 1011.18 1011.40 1011.06 1011.20 1010.92 1010.26 1009.71 1009.11 1008.66 1008.43 1008.86 1009.57 1010.21 1010.88 1012.08 1012.76 1013.57 1014.17 1014.16 1014.14 1014.60 1015.06 1015.37 1015.58 1015.85 1016.10 1016.28 1016.36 1016.46 1016.49 1016.74 1016.92 1016.98 1016.98 1017.26 1017.26 1017.36 1017.47 1017.65 1017.92 1018.03 1018.11 1018.20 1018.30 1018.44 1018.58 1018.64 1018.70
1010.96 1010.91 1011.10 1010.31 1010.40 1010.24 1009.79 1009.32 1009.02 1008.75 1008.68 1009.21 1010.10 1010.76 1011.48 1012.44 1013.06 1013.49 1013.74 1014.12 1014.26 1014.81 1015.21 1015.53 1015.78 1016.05 1016.30 1016.53 1016.60 1016.66 1016.82 1016.99 1017.13 1017.21 1017.26 1017.35 1017.53 1017.62 1017.74 1017.93 1018.08 1018.32 1018.39 1018.38 1018.42 1018.57 1018.71 1018.84 1018.92
1010.92 1011.12 1010.92 1010.52 1009.95 1009.70 1009.39 1008.88 1008.60 1008.62 1009.28 1009.69 1010.46 1011.53 1012.28 1012.52 1013.10 1013.46 1013.90 1014.02 1014.61 1015.02 1015.39 1015.60 1015.93 1016.20 1016.42 1016.58 1016.74 1016.94 1017.08 1017.22 1017.36 1017.42 1017.54 1017.68 1017.80 1017.95 1018.05 1018.18 1018.44 1018.58 1018.60 1018.60 1018.64 1018.71 1018.88 1018.94 1019.07
1010.72 1010.52 1010.62 1010.41 1009.71 1009.25 1008.78 1008.65 1008.74 1008.73 1009.32 1010.16 1010.62 1012.15 1012.98 1013.25 1013.18 1013.66 1014.07 1014.42 1014.80 1015.29 1015.60 1015.80 1016.10 1016.42 1016.57 1016.76 1016.94 1017.12 1017.29 1017.44 1017.54 1017.56 1017.69 1017.88 1018.02 1018.15 1018.31 1018.52 1018.70 1018.80 1018.82 1018.69 1018.71 1018.81 1018.92 1019.00 1019.03
1010.59 1010.59 1010.58 1010.20 1009.48 1008.79 1008.38 1008.44 1008.68 1008.82 1009.70 1010.54 1011.20 1012.24 1013.44 1013.76 1013.68 1014.09 1014.33 1014.71 1014.96 1015.43 1015.75 1016.04 1016.34 1016.62 1016.72 1016.86 1017.12 1017.33 1017.54 1017.63 1017.70 1017.80 1017.95 1018.07 1018.20 1018.38 1018.55 1018.69 1018.78 1018.84 1018.94 1018.98 1018.92 1019.01 1019.09 1019.11 1019.22
1010.10 1010.43 1010.16 1009.84 1009.25 1008.58 1007.80 1007.61 1008.12 1008.53 1009.37 1010.30 1010.98 1012.27 1013.60 1013.99 1014.02 1014.33 1014.68 1015.05 1015.26 1015.63 1016.00 1016.29 1016.56 1016.67 1016.85 1017.04 1017.32 1017.57 1017.73 1017.81 1017.91 1018.06 1018.14 1018.24 1018.42 1018.63 1018.76 1018.84 1018.88 1019.02 1019.18 1019.22 1019.24 1019.28 1019.33 1019.33 1019.40
1009.92 1010.13 1009.77 1009.46 1008.91 1008.09 1007.39 1007.49 1007.54 1008.22 1009.03 1010.10 1010.69 1011.74 1012.95 1013.29 1013.88 1014.44 1015.00 1015.42 1015.77 1016.10 1016.32 1016.55 1016.73 1016.80 1017.07 1017.30 1017.45 1017.73 1017.98 1018.05 1018.14 1018.32 1018.48 1018.54 1018.63 1018.80 1018.99 1019.14 1019.07 1019.01 1019.24 1019.36 1019.43 1019.55 1019.39 1019.41 1019.45
1009.57 1009.73 1009.32 1008.62 1008.17 1007.58 1007.34 1007.26 1007.67 1008.08 1009.01 1009.67 1010.44 1011.00 1011.97 1013.04 1013.81 1014.50 1015.12 1015.63 1015.96 1016.41 1016.69 1016.75 1016.92 1017.06 1017.36 1017.57 1017.67 1017.93 1018.11 1018.20 1018.42 1018.63 1018.73 1018.89 1019.10 1019.20 1019.36 1019.26 1019.23 1019.34 1019.39 1019.48 1019.64 1019.70 1019.61 1019.63 1019.66
1009.61 1009.57 1008.65 1007.71 1007.00 1006.76 1006.68 1006.97 1007.51 1008.28 1008.99 1010.01 1010.59 1011.25 1012.32 1013.22 1013.90 1014.30 1014.96 1015.42 1015.86 1016.34 1016.78 1016.99 1017.04 1017.26 1017.54 1017.66 1017.98 1018.24 1018.34 1018.52 1018.79 1018.98 1019.00 1019.08 1019.23 1019.42 1019.39 1019.41 1019.31 1019.24 1019.43 1019.56 1019.66 1019.78 1019.85 1020.02 1020.05
1009.19 1008.83 1007.98 1007.14 1006.56 1006.43 1006.55 1006.86 1007.14 1007.98 1008.94 1009.45 1010.36 1011.34 1012.36 1013.00 1013.84 1014.30 1014.83 1015.22 1015.52 1016.01 1016.72 1016.97 1017.10 1017.36 1017.68 1017.82 1018.21 1018.41 1018.54 1018.69 1018.90 1019.13 1019.16 1019.15 1019.27 1019.45 1019.42 1019.61 1019.67 1019.64 1019.79 1019.96 1020.01 1020.17 1020.23 1020.26 1020.35
1008.89 1007.98 1007.61 1006.88 1006.29 1006.46 1006.20 1006.52 1007.15 1007.66 1007.85 1008.38 1009.93 1010.49 1011.65 1012.85 1013.31 1013.94 1014.44 1015.00 1015.50 1015.98 1016.50 1016.91 1017.12 1017.42 1017.78 1018.04 1018.25 1018.41 1018.54 1018.81 1019.01 1019.24 1019.23 1019.22 1019.35 1019.39 1019.60 1019.69 1019.78 1019.83 1019.88 1020.15 1020.23 1020.35 1020.42 1020.40 1020.38
1008.68 1007.84 1007.23 1006.80 1006.32 1006.12 1005.99 1006.28 1006.72 1007.50 1007.84 1008.67 1010.04 1011.36 1012.16 1012.90 1013.44 1014.18 1014.70 1015.11 1015.58 1016.03 1016.42 1016.82 1017.10 1017.43 1017.78 1018.16 1018.28 1018.48 1018.65 1018.77 1018.98 1019.15 1019.26 1019.27 1019.30 1019.34 1019.51 1019.64 1019.78 1019.94 1020.02 1020.30 1020.52 1020.47 1020.39 1020.36 1020.41
1007.79 1007.77 1007.22 1006.58 1006.10 1005.86 1005.85 1006.29 1006.52 1007.94 1008.50 1009.32 1010.16 1011.41 1012.21 1012.58 1013.13 1013.79 1014.38 1014.88 1015.30 1015.78 1016.25 1016.68 1017.14 1017.28 1017.71 1018.03 1018.21 1018.47 1018.68 1018.79 1018.91 1019.03 1019.11 1019.26 1019.32 1019.41 1019.40 1019.55 1019.70 1019.87 1020.11 1020.42 1020.52 1020.54 1020.58 1020.50 1020.44
1007.76 1007.81 1007.26 1006.26 1005.76 1005.56 1005.56 1006.65 1007.10 1007.99 1008.74 1009.52 1010.60 1011.58 1012.33 1012.76 1013.17 1013.35 1013.86 1014.34 1014.68 1015.16 1015.92 1016.43 1017.00 1017.12 1017.56 1017.81 1018.09 1018.43 1018.60 1018.70 1018.81 1018.90 1018.98 1019.18 1019.30 1019.49 1019.60 1019.70 1019.80 1019.84 1020.02 1020.34 1020.38 1020.28 1020.57 1020.60 1020.45
1007.96 1007.85 1007.47 1005.87 1005.48 1005.22 1005.51 1006.70 1007.70 1008.42 1008.97 1009.74 1010.54 1011.30 1011.95 1012.34 1012.72 1013.35 1013.78 1014.38 1014.77 1015.06 1015.59 1016.20 1016.80 1017.08 1017.44 1017.66 1017.88 1018.18 1018.46 1018.61 1018.72 1018.72 1018.76 1018.89 1019.08 1019.30 1019.62 1019.78 1020.01 1019.92 1020.07 1020.24 1020.42 1020.45 1020.59 1020.62 1020.56
1008.29 1007.80 1007.19 1006.20 1005.22 1005.21 1005.77 1006.87 1007.82 1008.42 1009.14 1009.71 1010.23 1010.89 1011.43 1012.06 1012.47 1012.80 1013.31 1013.86 1014.39 1014.77 1015.32 1015.92 1016.42 1016.76 1017.12 1017.38 1017.61 1017.92 1018.20 1018.44 1018.56 1018.66 1018.63 1018.73 1018.86 1019.13 1019.55 1019.83 1020.01 1019.90 1020.14 1020.27 1020.52 1020.84 1020.95 1021.00 1020.83
1008.46 1007.80 1006.80 1005.98 1005.23 1005.36 1005.95 1006.85 1007.76 1008.37 1008.91 1009.66 1010.19 1010.64 1011.04 1011.35 1011.62 1012.22 1012.81 1013.42 1014.02 1014.54 1015.03 1015.60 1016.09 1016.45 1016.85 1017.22 1017.56 1017.91 1018.13 1018.27 1018.40 1018.37 1018.39 1018.55 1018.75 1018.97 1019.48 1019.73 1019.88 1019.99 1020.05 1020.46 1020.53 1020.94 1021.22 1021.14 1021.29
1007.97 1007.43 1006.78 1005.69 1005.02 1005.24 1005.78 1006.49 1007.31 1008.02 1008.87 1009.22 1009.70 1010.08 1010.48 1010.64 1011.26 1011.87 1012.35 1012.93 1013.61 1014.22 1014.80 1015.22 1015.79 1016.07 1016.73 1017.28 1017.78 1018.10 1018.21 1018.24 1018.35 1018.31 1018.23 1018.35 1018.63 1018.96 1019.47 1019.70 1019.86 1020.07 1020.12 1020.24 1020.52 1020.84 1021.10 1021.24 1021.29
1008.06 1007.60 1006.98 1006.05 1005.16 1005.28 1005.64 1006.25 1007.12 1007.80 1007.69 1008.05 1008.62 1009.07 1009.53 1010.24 1010.80 1011.23 1011.66 1012.22 1012.86 1013.54 1014.23 1014.84 1015.25 1015.76 1016.22 1016.73 1017.05 1017.50 1017.87 1018.06 1018.02 1018.00 1018.15 1018.18 1018.45 1018.73 1019.19 1019.51 1019.71 1019.88 1020.24 1020.43 1020.50 1020.77 1021.23 1021.49 1021.54
1007.90 1007.49 1007.02 1006.49 1005.55 1005.22 1005.60 1006.41 1007.06 1007.50 1007.98 1008.28 1008.36 1008.68 1009.06 1009.12 1009.67 1010.40 1010.94 1011.32 1012.05 1012.83 1013.44 1014.14 1014.66 1015.22 1015.71 1016.22 1016.82 1017.42 1017.94 1018.21 1018.30 1018.38 1018.50 1018.32 1018.39 1018.61 1018.90 1019.29 1019.56 1019.79 1020.00 1020.44 1020.50 1020.70 1021.02 1021.48 1021.73
1007.40 1006.96 1006.92 1006.87 1006.70 1006.06 1005.75 1006.42 1006.49 1006.54 1006.91 1007.20 1007.38 1007.62 1008.05 1008.43 1009.03 1009.67 1010.18 1010.77 1011.11 1011.78 1012.69 1013.29 1014.02 1014.62 1015.27 1015.83 1016.40 1016.87 1017.33 1017.82 1018.03 1018.03 1018.10 1018.18 1018.23 1018.41 1018.67 1019.01 1019.35 1019.54 1020.00 1020.22 1020.34 1020.52 1020.86 1021.26 1021.62
1006.16 1006.35 1006.84 1007.07 1007.15 1006.61 1006.14 1006.57 1005.12 1005.47 1006.03 1005.93 1005.96 1006.31 1006.86 1007.26 1007.81 1008.46 1009.00 1009.37 1010.10 1011.10 1011.81 1012.63 1013.46 1014.14 1014.65 1015.29 1015.80 1016.36 1017.02 1017.31 1017.60 1017.81 1018.00 1018.10 1018.10 1018.18 1018.43 1018.74 1019.08 1019.44 1019.65 1019.88 1020.18 1020.42 1020.69 1021.04 1021.37
1005.98 1006.54 1006.88 1007.16 1007.47 1006.78 1006.21 1006.30 1004.58 1004.49 1004.19 1004.18 1004.60 1005.06 1005.43 1006.10 1006.74 1007.42 1008.10 1008.84 1009.51 1010.22 1011.11 1011.92 1012.79 1013.45 1014.09 1014.65 1015.24 1015.71 1016.36 1017.03 1017.49 1017.82 1017.93 1017.99 1018.04 1018.17 1018.31 1018.57 1018.86 1019.18 1019.42 1019.68 1019.84 1020.16 1020.51 1020.78 1021.02
1005.91 1006.78 1007.70 1008.19 1007.66 1006.31 1006.00 1005.74 1002.96 1002.37 1002.20 1002.09 1002.68 1003.24 1003.95 1004.53 1005.44 1006.29 1007.19 1007.84 1008.55 1009.24 1010.00 1010.94 1011.90 1012.79 1013.38 1014.04 1014.63 1015.14 1015.60 1016.27 1016.70 1017.15 1017.40 1017.72 1017.94 1018.06 1018.19 1018.36 1018.72 1018.94 1019.02 1019.30 1019.55 1020.00 1020.32 1020.49 1020.76
1005.66 1006.14 1006.75 1007.40 1007.44 1006.79 1005.91 1004.24 1001.31 1001.49 1001.20 1001.17 1001.29 1001.57 1002.64 1003.39 1004.21 1004.96 1005.64 1006.38 1007.24 1008.07 1008.87 1009.95 1010.87 1011.73 1012.56 1013.24 1013.84 1014.41 1015.01 1015.58 1015.97 1016.38 1016.74 1016.95 1017.26 1017.36 1017.49 1017.88 1018.21 1018.46 1018.69 1018.93 1019.28 1019.64 1019.88 1020.11 1020.41
1005.64 1005.41 1005.98 1007.12 1007.54 1006.83 1005.35 1003.50 1001.26 1000.62 1000.42 1000.51 1000.77 1001.22 1001.60 1001.97 1002.51 1003.27 1004.17 1005.06 1006.03 1006.92 1007.74 1008.72 1009.69 1010.62 1011.44 1011.97 1012.79 1013.61 1014.24 1014.81 1015.31 1015.68 1016.11 1016.38 1016.58 1016.87 1017.13 1017.48 1017.90 1018.03 1018.27 1018.51 1018.86 1019.28 1019.44 1019.79 1020.03
1005.81 1005.54 1006.35 1007.00 1007.14 1006.69 1004.96 1003.07 1001.04 1000.03 999.87 999.86 1000.34 1000.46 1000.52 1000.88 1001.45 1002.24 1002.98 1003.65 1004.62 1005.42 1006.43 1007.58 1008.46 1009.29 1010.14 1011.04 1011.82 1012.48 1013.21 1013.82 1014.46 1015.11 1015.54 1015.88 1016.06 1016.41 1016.74 1017.18 1017.58 1017.79 1017.85 1018.04 1018.58 1018.90 1019.06 1019.42 1019.62
1006.99 1006.50 1006.33 1006.26 1006.32 1005.63 1004.76 1002.17 1000.39 999.78 999.23 999.27 999.30 999.33 999.56 999.89 1000.16 1000.64 1001.17 1002.01 1002.90 1004.19 1005.49 1006.34 1007.44 1008.39 1009.30 1010.21 1010.89 1011.62 1012.35 1013.08 1013.80 1014.28 1014.82 1015.32 1015.75 1016.00 1016.32 1016.70 1017.13 1017.39 1017.62 1017.84 1018.22 1018.41 1018.64 1018.92 1019.19
1008.84 1008.35 1008.30 1008.21 1007.22 1005.68 1004.05 1001.34 999.66 999.25 999.00 999.11 998.98 998.58 998.51 998.46 998.62 999.36 999.96 1000.83 1001.93 1002.86 1004.00 1005.04 1006.20 1007.24 1008.18 1008.96 1009.96 1010.66 1011.33 1012.18 1012.92 1013.51 1014.11 1014.69 1015.19 1015.59 1015.81 1016.26 1016.58 1016.82 1017.09 1017.35 1017.66 1017.88 1018.14 1018.40 1018.65
Wind_Speed
9 5 3 2 1 1 2 1 2 3 7 6 13 6 6 4 4 3 1 5 12 10 6 9 14 15 14 15 14 14 14 14 14 13 14 13 13 13 13 14 13 13 12 12 12 12 10 10 9
5 7 1 1 2 0 1 2 2 3 4 15 8 8 4 3 3 8 7 6 12 10 6 7 13 14 14 14 14 14 14 14 12 12 13 13 12 12 12 14 13 12 11 11 12 12 12 10 10
7 4 2 2 1 2 1 2 4 5 9 11 4 6 3 4 7 12 6 11 12 9 6 9 14 13 13 13 13 13 13 13 11 11 11 11 12 11 12 12 12 11 11 11 11 11 10 10 9
5 2 3 1 5 3 2 2 6 10 8 9 7 7 3 3 11 6 13 13 12 9 7 13 15 13 13 13 12 13 12 12 12 11 11 10 10 11 11 12 11 10 10 10 10 10 10 9 9
1 2 1 1 2 2 5 1 3 7 6 6 3 4 5 3 10 15 13 12 14 9 6 11 14 12 12 12 12 11 11 10 11 10 10 9 10 9 9 9 9 8 8 8 9 9 9 8 8
2 0 0 1 1 2 1 5 1 1 6 7 7 9 4 8 15 10 11 11 10 10 7 8 14 12 12 13 12 11 10 10 8 10 9 10 9 9 8 8 8 8 8 8 8 8 9 8 7
2 2 1 1 2 2 5 4 8 5 8 5 15 6 5 11 9 10 10 10 9 8 7 6 6 10 13 12 12 10 9 10 7 10 8 10 8 7 8 8 7 7 8 8 7 8 9 8 7
2 1 1 2 3 3 3 6 9 6 5 15 13 8 12 13 12 12 10 9 8 6 5 6 5 5 5 5 12 10 9 8 8 8 7 7 7 6 7 5 4 6 6 7 7 7 8 9 8
2 1 2 3 4 4 6 3 5 6 13 6 7 6 15 17 16 14 15 11 8 7 5 5 5 5 5 4 6 9 9 8 7 6 6 5 3 3 5 1 2 4 6 6 7 6 7 8 8
3 2 6 4 2 2 4 5 7 5 11 4 8 17 23 18 17 19 17 16 16 13 7 5 5 5 5 3 3 4 3 3 3 3 3 2 2 1 1 1 2 3 7 6 8 6 7 5 3
5 5 4 3 2 0 3 6 5 11 4 6 19 24 24 21 20 20 18 17 16 15 8 6 5 5 5 4 3 2 2 2 2 3 2 1 1 1 1 1 2 3 6 3 3 3 2 2 3
3 7 7 3 3 5 4 8 5 9 6 15 22 28 27 21 23 21 20 18 17 16 13 7 6 5 5 3 3 3 2 2 2 2 2 1 0 1 0 0 1 1 1 2 3 2 1 1 1
6 5 3 8 10 6 5 9 6 11 7 18 22 24 22 18 19 16 13 13 12 13 10 9 6 6 5 4 3 3 3 2 2 2 2 1 1 2 1 1 0 0 1 2 3 2 0 0 0
6 10 12 8 11 6 7 2 8 5 16 20 25 23 19 19 19 15 15 15 14 12 10 9 8 6 5 5 5 3 3 3 3 3 3 3 2 2 1 1 1 1 2 2 3 2 2 1 1
4 4 5 6 4 5 9 2 0 13 18 22 22 19 17 16 16 17 15 15 16 13 11 11 9 7 7 7 5 4 3 4 3 3 4 4 4 3 1 2 1 1 2 4 1 2 2 1 1
6 5 1 4 8 5 5 5 5 13 19 21 21 19 18 16 18 13 13 12 13 11 12 10 10 9 7 6 5 4 4 3 3 4 3 4 4 4 3 2 2 2 1 2 2 2 2 2 2
5 4 6 6 7 5 7 3 8 13 15 18 19 19 17 15 16 14 14 13 13 12 12 11 9 8 9 6 4 4 5 4 4 4 4 5 5 4 3 3 2 2 2 1 1 2 2 1 2
5 3 3 6 5 7 6 3 11 13 15 16 17 17 18 18 19 16 15 14 13 11 10 11 9 7 7 4 3 1 1 2 3 4 4 5 4 3 3 2 3 3 2 3 2 3 1 1 0
4 4 5 4 6 6 10 7 15 15 13 16 17 18 17 19 16 15 15 15 14 12 11 12 11 8 7 3 3 2 3 2 1 3 5 5 4 4 4 3 3 3 2 2 1 2 2 2 2
7 2 3 5 7 7 7 13 9 16 19 19 19 20 19 17 17 16 16 16 15 15 13 12 13 9 9 7 3 3 3 2 1 1 3 5 5 5 4 4 3 4 3 2 1 2 2 1 1
9 10 4 2 5 2 4 3 6 9 12 12 14 15 16 20 20 19 18 18 16 16 16 13 13 12 10 9 4 3 4 2 2 1 2 4 6 6 5 5 3 4 2 2 2 2 3 2 1
10 10 12 5 3 4 6 6 6 10 18 19 18 18 18 19 18 18 19 17 18 17 15 15 14 12 11 10 8 8 6 6 4 4 3 4 6 6 6 5 4 3 3 4 3 2 2 3 2
7 12 12 8 6 4 3 1 7 12 14 20 21 21 20 20 20 21 22 23 19 16 15 14 14 13 12 12 11 9 8 3 3 3 5 4 4 5 5 5 5 4 3 3 4 3 3 2 3
6 3 4 2 5 11 12 8 7 8 16 19 19 21 22 22 21 20 20 19 18 17 15 15 15 14 12 13 14 13 12 7 5 4 5 4 3 3 4 4 5 4 4 4 4 4 4 4 3
8 6 2 3 6 12 9 6 15 5 12 17 23 23 24 23 22 21 21 20 19 20 18 16 16 16 14 14 14 13 12 11 11 8 6 6 3 3 5 5 5 4 5 5 4 4 4 4 3
9 12 7 8 4 9 5 10 14 14 13 13 16 20 19 21 20 22 24 22 21 21 21 18 18 18 16 16 16 14 12 8 8 9 6 6 5 5 6 7 6 7 6 5 5 3 4 5 4
5 14 9 3 1 1 4 9 9 5 7 6 9 13 21 23 23 24 24 22 21 21 22 21 19 19 18 19 16 14 12 12 11 10 8 7 6 5 6 6 7 8 8 8 6 5 6 5 5
7 5 4 1 10 9 4 7 7 9 15 9 7 15 19 21 22 20 21 23 21 22 21 21 21 21 19 19 16 14 15 14 12 9 10 8 7 7 6 7 7 7 8 8 7 6 6 6 5
6 4 3 4 7 10 4 9 6 7 9 13 13 16 17 20 22 23 23 23 23 20 20 22 21 21 18 17 16 16 14 14 12 11 11 10 8 9 9 7 7 8 8 8 8 9 7 8 7
4 3 3 3 6 4 5 12 4 9 7 7 7 11 16 20 22 21 23 22 21 21 21 23 21 20 19 18 17 17 15 14 14 13 12 11 11 8 9 8 9 8 8 8 10 10 8 10 9
Wind_Direction
169 143 129 205 206 199 227 45 273 198 138 153 144 177 162 32 146 178 154 143 128 132 150 127 127 125 122 117 123 118 117 118 121 118 125 127 129 130 122 120 116 118 113 109 97 100 103 103 103
135 137 245 301 207 61 125 165 244 57 151 142 98 102 77 94 86 117 123 169 132 134 132 131 132 128 129 127 125 125 126 120 114 120 117 124 119 121 124 121 118 118 112 105 102 99 108 110 109
153 204 260 279 169 195 146 199 250 102 111 132 90 41 57 107 107 139 145 140 128 127 123 144 133 132 134 130 123 123 110 109 111 107 107 110 120 125 118 115 114 117 111 108 103 105 104 110 113
165 210 249 247 272 134 215 8 334 142 87 72 95 66 76 298 142 132 141 132 126 130 136 147 140 139 138 135 132 119 120 121 122 119 115 113 109 113 115 118 119 119 117 111 105 105 105 102 105
286 263 214 267 274 220 227 266 262 119 108 111 122 98 78 45 114 131 134 133 139 133 147 145 147 146 143 139 130 128 126 117 130 131 124 123 125 119 113 114 114 117 114 113 109 112 111 112 112
185 44 80 251 259 312 343 235 252 158 110 126 99 120 113 125 131 135 129 132 136 136 131 150 153 156 154 147 140 134 130 120 109 110 114 111 114 120 116 113 112 110 103 92 98 104 112 107 98
260 148 223 228 188 260 224 186 210 120 130 135 139 104 107 148 140 128 124 120 127 130 128 132 155 168 165 151 145 139 139 123 115 105 117 118 115 113 110 108 111 106 100 98 89 96 105 108 102
252 148 211 203 192 249 152 165 160 157 107 126 138 164 166 160 144 127 123 116 114 119 134 143 165 147 150 152 152 144 129 124 123 109 104 106 106 110 107 90 101 110 104 105 101 97 114 125 112
235 276 254 244 194 177 164 157 106 108 136 165 176 136 136 143 136 139 144 143 131 127 141 145 144 144 145 149 158 144 142 145 134 122 121 68 64 47 44 67 93 111 108 114 110 104 113 115 107
179 194 220 219 225 39 164 137 132 129 146 77 89 116 137 142 150 156 162 161 166 165 160 157 151 153 156 155 116 126 140 107 102 106 100 112 101 85 103 339 263 114 98 94 91 86 116 98 102
189 213 222 264 249 293 114 143 147 139 216 170 153 146 151 153 161 166 166 170 171 170 170 166 164 162 162 146 140 133 132 140 139 138 134 158 95 16 301 23 14 37 69 41 60 45 55 121 117
220 230 246 292 330 335 195 144 150 176 200 148 160 158 155 164 169 172 170 170 172 176 175 174 168 167 176 144 167 164 158 154 159 162 169 233 223 263 149 331 77 90 70 66 69 35 62 107 108
227 281 243 253 274 252 221 191 180 190 113 138 146 156 160 164 168 170 166 167 168 177 174 181 167 176 176 175 181 173 171 180 182 190 194 200 246 257 189 144 203 207 71 80 81 54 333 270 23
203 236 285 279 277 270 193 184 136 110 133 140 150 161 167 170 172 164 170 172 175 174 180 175 181 183 171 188 191 178 176 190 198 207 205 203 209 246 244 197 252 1 93 100 92 77 83 16 360
262 303 319 252 247 239 123 13 90 141 148 148 156 163 169 174 178 182 177 176 177 179 172 182 182 179 184 193 192 180 190 193 220 224 221 204 194 211 209 181 250 247 64 91 88 29 108 66 258
170 128 184 281 183 219 124 228 130 149 150 158 162 170 173 179 185 182 183 181 185 175 176 179 188 188 188 189 189 186 193 199 222 236 223 226 219 202 178 205 190 185 87 97 78 29 26 8 9
355 197 191 300 195 174 186 207 165 163 162 167 170 176 179 180 186 186 183 183 184 184 177 179 183 182 188 189 193 196 201 205 218 212 219 218 219 189 169 192 182 154 117 79 101 71 58 326 319
198 199 214 194 210 175 178 191 166 173 167 175 181 181 184 189 192 188 180 185 183 187 183 180 184 179 183 164 150 165 214 239 207 206 211 199 208 202 171 180 131 136 143 130 140 118 133 59 310
187 195 206 232 238 155 212 186 185 177 177 181 186 186 192 201 189 191 184 185 184 188 187 183 180 183 166 144 140 153 204 211 201 198 187 190 196 195 175 172 165 156 143 132 108 95 78 45 59
241 242 269 293 267 185 214 232 175 185 200 192 186 189 192 191 191 191 189 183 187 187 192 189 189 176 184 188 166 152 157 204 188 157 183 186 194 200 192 174 195 162 136 147 150 101 102 79 22
229 230 217 232 333 231 99 288 158 199 199 203 210 205 195 194 193 193 189 190 188 190 192 191 192 184 187 186 127 92 84 49 74 126 183 211 200 205 203 184 192 171 158 143 181 164 143 146 48
220 204 239 231 267 231 151 259 198 191 199 203 205 203 201 199 201 199 196 197 194 194 192 190 193 186 188 177 179 185 189 184 189 181 187 189 200 202 204 191 187 193 166 181 182 179 152 131 179
227 171 211 208 225 290 238 179 257 187 204 208 209 206 204 204 200 199 201 200 200 188 190 191 189 192 189 185 190 190 207 179 147 163 183 202 210 210 204 195 184 201 211 186 178 178 181 165 165
166 174 156 143 174 237 232 200 243 184 206 215 214 210 205 203 204 204 206 202 201 197 188 188 185 189 186 185 195 194 199 171 161 178 191 200 208 207 216 197 195 198 207 222 187 187 200 198 198
159 113 254 235 201 234 198 227 233 216 205 208 205 210 208 204 201 200 201 199 199 197 190 189 184 193 188 187 194 197 195 180 191 188 197 181 192 196 215 200 194 199 211 216 197 177 207 207 207
186 169 170 200 194 219 173 223 236 215 226 213 216 215 202 202 202 201 201 199 199 198 196 188 187 192 188 190 196 197 193 191 198 194 198 194 192 194 193 204 202 212 212 212 207 193 206 204 223
219 207 174 107 187 14 207 275 287 225 234 206 185 175 195 201 200 200 201 201 197 197 197 190 189 194 192 194 193 197 194 192 197 195 196 199 183 198 197 197 203 213 213 213 201 214 223 202 213
193 205 120 311 216 232 257 249 237 191 224 229 181 197 201 204 205 201 200 200 200 199 196 193 191 192 191 195 195 196 194 197 195 187 198 199 196 191 184 195 203 210 216 215 201 219 224 212 223
14 220 243 172 182 223 152 249 215 221 220 204 209 208 202 202 204 202 203 199 199 197 193 195 193 192 195 194 194 195 197 196 196 196 198 200 196 196 198 197 204 216 213 208 206 219 221 219 230
171 247 13 231 241 242 180 241 231 234 245 236 241 216 207 203 203 204 203 197 195 194 191 193 191 191 193 190 192 195 193 191 195 198 196 193 197 193 201 195 211 218 216 206 207 219 215 221 228